Location: Monroe
(41.9160°N, 83.3980°W)
Time: 22:45:58
(UTC-04:00)

ISS - All Passes

Search period start: 24 October 2014 00:00
Search period end: 02 November 2014 23:00
Orbit: 412 x 416 km, 51.6° (Epoch: 24 October)

Date Brightness Start Highest point End Pass type
(mag) Time Alt. Az. Time Alt. Az. Time Alt. Az.
24 Oct - 13:10:33 10° SSW 13:13:21 25° SE 13:16:09 10° ENE daylight
24 Oct - 14:46:43 10° W 14:49:54 42° NNW 14:53:07 10° NE daylight
24 Oct - 16:24:59 10° NW 16:27:15 17° N 16:29:30 10° NE daylight
24 Oct - 18:02:28 10° NW 18:04:53 18° NNE 18:07:18 10° ENE daylight
24 Oct - 19:38:48 10° NW 19:42:07 57° NNE 19:45:24 10° ESE visible
24 Oct - 21:16:11 10° W 21:18:31 18° SW 21:20:50 10° S visible
25 Oct - 12:22:26 10° SSE 12:24:21 15° SE 12:26:16 10° E daylight
25 Oct - 13:57:21 10° WSW 14:00:40 68° NNW 14:04:00 10° NE daylight
25 Oct - 15:35:20 10° WNW 15:37:50 19° NNW 15:40:20 10° NE daylight
25 Oct - 17:13:16 10° NW 17:15:27 16° N 17:17:39 10° NE daylight
25 Oct - 18:49:43 10° NW 18:52:51 37° NNE 18:55:59 10° E daylight
25 Oct - 20:26:30 10° WNW 20:29:29 30° SW 20:32:27 10° SSE visible
26 Oct - 13:08:09 10° SW 13:11:28 70° SE 13:14:47 10° ENE daylight
26 Oct - 14:45:38 10° WNW 14:48:25 24° NNW 14:51:12 10° NE daylight
26 Oct - 16:23:53 10° NW 16:25:58 15° N 16:28:03 10° NE daylight
26 Oct - 18:00:36 10° NW 18:03:29 26° NNE 18:06:23 10° E daylight
26 Oct - 19:37:05 10° WNW 19:40:21 55° SW 19:43:37 10° SE visible
27 Oct - 12:19:10 10° SSW 12:22:16 38° SE 12:25:24 10° ENE daylight
27 Oct - 13:55:58 10° W 13:59:00 32° NNW 14:02:02 10° NE daylight
27 Oct - 15:34:19 10° NW 15:36:26 16° N 15:38:34 10° NE daylight
27 Oct - 17:11:26 10° NW 17:14:03 21° NNE 17:16:39 10° ENE daylight
27 Oct - 18:47:46 10° NW 18:51:07 84° NE 18:54:27 10° ESE daylight
27 Oct - 20:26:07 10° WSW 20:27:20 12° SW 20:28:34 10° SSW visible
28 Oct - 11:30:30 10° S 11:33:07 22° SE 11:35:45 10° E daylight
28 Oct - 13:06:22 10° WSW 13:09:36 47° NNW 13:12:50 10° NE daylight
28 Oct - 14:44:35 10° NW 14:46:53 17° N 14:49:12 10° NE daylight
28 Oct - 16:22:11 10° NW 16:24:31 17° N 16:26:51 10° NE daylight
28 Oct - 17:58:31 10° NW 18:01:47 50° NNE 18:05:02 10° ESE daylight
28 Oct - 19:35:41 10° W 19:38:14 20° SW 19:40:46 10° S visible
29 Oct - 10:42:29 10° SSE 10:43:58 13° SE 10:45:28 10° ESE daylight
29 Oct - 12:16:54 10° WSW 12:20:13 78° NNW 12:23:33 10° NE daylight
29 Oct - 13:54:45 10° WNW 13:57:19 20° NNW 13:59:53 10° NE daylight
29 Oct - 15:32:47 10° NW 15:34:55 16° N 15:37:03 10° NE daylight
29 Oct - 17:09:16 10° NW 17:12:20 33° NNE 17:15:24 10° E daylight
29 Oct - 18:45:57 10° WNW 18:49:02 35° SW 18:52:06 10° SSE daylight
30 Oct - 11:27:36 10° SW 11:30:52 59° SE 11:34:09 10° ENE daylight
30 Oct - 13:04:54 10° W 13:07:45 25° NNW 13:10:36 10° NE daylight
30 Oct - 14:43:12 10° NW 14:45:16 15° N 14:47:20 10° NE daylight
30 Oct - 16:19:59 10° NW 16:22:48 24° NNE 16:25:37 10° ENE daylight
30 Oct - 17:56:25 10° WNW 17:59:43 65° SW 18:03:00 10° SE daylight
31 Oct - 10:38:32 10° SSW 10:41:32 32° SE 10:44:33 10° ENE daylight
31 Oct - 12:15:06 10° W 12:18:11 35° NNW 12:21:17 10° NE daylight
31 Oct - 13:53:26 10° NW 13:55:35 16° N 13:57:44 10° NE daylight
31 Oct - 15:30:39 10° NW 15:33:11 20° NNE 15:35:42 10° ENE daylight
31 Oct - 17:06:58 10° NW 17:10:18 73° NNE 17:13:37 10° ESE daylight
31 Oct - 18:44:50 10° W 18:46:35 14° SW 18:48:19 10° SSW daylight
01 Nov - 09:49:50 10° S 09:52:14 19° SE 09:54:38 10° E daylight
01 Nov - 11:25:23 10° WSW 11:28:38 54° NNW 11:31:55 10° NE daylight
01 Nov - 13:03:30 10° WNW 13:05:52 18° NNW 13:08:14 10° NE daylight
01 Nov - 14:41:13 10° NNW 14:43:29 17° N 14:45:45 10° NE daylight
01 Nov - 16:17:34 10° NW 16:20:47 44° NNE 16:23:59 10° ESE daylight
01 Nov - 17:54:34 10° W 17:57:18 24° SW 18:00:01 10° S daylight
02 Nov - 08:02:17 10° SE 08:02:57 11° SE 08:03:38 10° ESE daylight
02 Nov - 09:35:48 10° SW 09:39:07 89° SE 09:42:27 10° NE daylight
02 Nov - 11:13:30 10° WNW 11:16:09 21° NNW 11:18:47 10° NE daylight
02 Nov - 12:51:37 10° NW 12:53:43 16° N 12:55:49 10° NE daylight
02 Nov - 14:28:10 10° NW 14:31:10 30° NNE 14:34:09 10° E daylight
02 Nov - 16:04:45 10° WNW 16:07:55 42° SW 16:11:04 10° SSE daylight
